Chadron, NE

7:40 PM MDT on October 22, 2017 (GMT -0600)
Chadron Municipal

Weather History for KCDR - August, 2014

Change the Weather History Date:

Monday, August 25, 2014

  Actual Average Record
Temperature  
Mean Temperature 65 °F 70 °F  
Max Temperature 80 °F 87 °F 111 °F (1926)
Min Temperature 49 °F 53 °F 37 °F (1964)
Degree Days  
Heating Degree Days 0 1  
Month to date heating degree days 0 9  
Since 1 June heating degree days 94 100  
Since 1 July heating degree days 11 19  
Cooling Degree Days 0 6  
Month to date cooling degree days 224 210  
Year to date cooling degree days 568 614  
Since 1 June cooling degree days 537 594  
Growing Degree Days 13 (Base 50)    
Moisture  
Dew Point 44 °F    
Average Humidity 54    
Maximum Humidity 80    
Minimum Humidity 28    
Precipitation  
Precipitation 0.03 in 0.05 in 0.80 in (1938)
Month to date precipitation 1.10 1.26  
Year to date precipitation 12.89 13.55  
Sea Level Pressure  
Sea Level Pressure 30.09 in    
Wind  
Wind Speed 8 mph (West)    
Max Wind Speed 16 mph    
Max Gust Speed 20 mph    
Visibility 10 miles    
Events      
T = Trace of Precipitation, MM = Missing Value Source: NWS Daily Summary

Daily Weather History Graph

Daily Weather History Graph

Search for Another Location

Airport or City:

Trip Planner

Search our weather history database for the weather conditions in past years. The results will help you decide how hot, cold, wet, or windy it might be!

Date:

Astronomy

Aug. 25, 2014 Rise Set
Actual Time 6:09 AM MDT 7:38 PM MDT
Civil Twilight 5:39 AM MDT 8:08 PM MDT
Nautical Twilight 5:04 AM MDT 8:43 PM MDT
Astronomical Twilight 4:25 AM MDT 9:21 PM MDT
Moon 6:18 AM MDT (8/25) 7:27 PM MDT (8/25)
Length of Visible Light 14h 28m
Length of Day
13h 29m
New Moon, 0% of the Moon is Illuminated
Aug 25
New Moon
Sep 2
First Quarter
Sep 8
Full
Sep 15
Last Quarter
Sep 24
New

Hourly Weather History & Observations

Time (MDT) Temp. Dew Point Humidity Pressure Visibility Wind Dir Wind Speed Gust Speed Precip Events Conditions
12:53 AM 54.0 °F 42.1 °F 64% 30.06 in 10.0 mi East 8.1 mph - N/A   Partly Cloudy
1:53 AM 52.0 °F 42.1 °F 69% 30.05 in 10.0 mi WSW 8.1 mph - N/A   Clear
2:53 AM 48.9 °F 43.0 °F 80% 30.06 in 10.0 mi WSW 8.1 mph - N/A   Clear
3:53 AM 50.0 °F 43.0 °F 77% 30.06 in 10.0 mi SW 9.2 mph - N/A   Clear
4:53 AM 52.0 °F 43.0 °F 71% 30.06 in 10.0 mi WSW 10.4 mph - N/A   Partly Cloudy
5:53 AM 50.0 °F 43.0 °F 77% 30.09 in 10.0 mi SW 10.4 mph - N/A   Clear
6:53 AM 52.0 °F 43.0 °F 71% 30.09 in 10.0 mi WSW 10.4 mph - N/A   Clear
8:53 AM 57.9 °F 44.1 °F 60% 30.14 in 10.0 mi WSW 9.2 mph - N/A   Scattered Clouds
9:53 AM 64.9 °F 44.1 °F 47% 30.15 in 10.0 mi West 12.7 mph - N/A   Clear
10:53 AM 64.9 °F 43.0 °F 45% 30.14 in 10.0 mi NW 6.9 mph - N/A   Overcast
11:53 AM 63.0 °F 43.0 °F 48% 30.15 in 10.0 mi WNW 11.5 mph - N/A   Overcast
12:53 PM 70.0 °F 42.1 °F 36% 30.12 in 10.0 mi NW 8.1 mph - N/A   Clear
1:53 PM 73.9 °F 42.1 °F 32% 30.09 in 10.0 mi East 5.8 mph - N/A   Clear
2:53 PM 75.9 °F 42.1 °F 30% 30.07 in 10.0 mi Variable 6.9 mph - N/A   Clear
3:53 PM 77.0 °F 42.1 °F 29% 30.06 in 10.0 mi Variable 4.6 mph - N/A   Clear
4:53 PM 77.0 °F 42.1 °F 29% 30.05 in 10.0 mi Calm Calm - N/A   Clear
5:53 PM 78.1 °F 42.1 °F 28% 30.04 in 10.0 mi NNE 6.9 mph - N/A   Clear
6:53 PM 75.0 °F 43.0 °F 32% 30.04 in 10.0 mi ENE 9.2 mph - N/A   Clear
9:53 PM 59.0 °F 48.9 °F 69% 30.13 in 10.0 mi ESE 3.5 mph - N/A   Clear
10:53 PM 59.0 °F 48.9 °F 69% 30.13 in 10.0 mi NNE 4.6 mph - N/A   Mostly Cloudy
11:53 PM 62.1 °F 48.9 °F 62% 30.15 in 10.0 mi NNE 8.1 mph - N/A   Overcast